Weather History for Grosse Ile, MI

Change the Weather History Date:

Wednesday, June 26, 2013

  Actual Average (KDTW) Record (KDTW)
Temperature  
Mean Temperature 74 °F 72 °F  
Max Temperature 80 °F 82 °F 100 °F (1952)
Min Temperature 68 °F 62 °F 44 °F (1979)
Degree Days  
Heating Degree Days 0 0  
Month to date heating degree days 34  
Since 1 June heating degree days 34  
Since 1 July heating degree days 6136  
Cooling Degree Days 9 8  
Month to date cooling degree days 135  
Year to date cooling degree days 183  
Since 1 June cooling degree days 135  
Growing Degree Days 24 (Base 50)    
Moisture  
Dew Point 68 °F    
Average Humidity 82    
Maximum Humidity 94    
Minimum Humidity 69    
Precipitation  
Precipitation 0.18 in 0.11 in 2.10 in (1909)
Month to date precipitation 3.08  
Year to date precipitation 15.62  
Snow  
Snow 0.00 in 0.00 in 0.00 in ()
Month to date snowfall 0.0  
Since 1 June snowfall 0.0  
Since 1 July snowfall 42.5  
Snow Depth -    
Sea Level Pressure  
Sea Level Pressure 29.82 in    
Wind  
Wind Speed 6 mph (SSW)    
Max Wind Speed 14 mph    
Max Gust Speed 20 mph    
Visibility 10 miles    
Events Rain    
T = Trace of Precipitation, MM = Missing Value Source: NWS Daily Summary

Daily Weather History Graph

Daily Weather History Graph

Search for Another Location

Airport:

Trip Planner

Search our weather history database for the weather conditions in past years. The results will help you decide how hot, cold, wet, or windy it might be!

Date:

Astronomy

Jun. 26, 2013 Rise Set
Actual Time 5:58 AM EDT 9:12 PM EDT
Civil Twilight 5:23 AM EDT 9:47 PM EDT
Nautical Twilight 4:39 AM EDT 10:31 PM EDT
Astronomical Twilight 3:45 AM EDT 11:25 PM EDT
Moon 11:30 PM EDT (6/26) 9:52 AM EDT (6/26)
Length of Visible Light 16h 23m
Length of Day
15h 14m
Waning Gibbous, 85% of the Moon is Illuminated
Jun 26
Waning Gibbous
Jun 30
Last Quarter
Jul 8
New
Jul 15
First Quarter
Jul 22
Full

Hourly Weather History & Observations

Time (EDT) Temp. Heat Index Dew Point Humidity Pressure Visibility Wind Dir Wind Speed Gust Speed Precip Events Conditions
12:14 AM 73.4 °F - 71.6 °F 94% 29.91 in 5.0 mi WSW 6.9 mph - 0.05 in Rain Rain
12:34 AM 71.6 °F - 69.8 °F 94% 29.91 in 10.0 mi WSW 10.4 mph - 0.11 in Rain Heavy Rain
12:54 AM 71.6 °F - 66.2 °F 83% 29.90 in 10.0 mi West 8.1 mph 16.1 mph 0.14 in Rain Rain
1:14 AM 69.8 °F - 64.4 °F 83% 29.87 in 10.0 mi SW 13.8 mph 19.6 mph 0.02 in Rain Rain
1:34 AM 69.8 °F - 64.4 °F 83% 29.85 in 10.0 mi WSW 8.1 mph - 0.03 in Rain Light Rain
1:54 AM 68.0 °F - 64.4 °F 88% 29.83 in 10.0 mi West 3.5 mph - 0.03 in Rain Light Rain
2:14 AM 68.0 °F - 64.4 °F 88% 29.82 in 10.0 mi West 6.9 mph - 0.01 in   Clear
2:35 AM 68.0 °F - 64.4 °F 88% 29.80 in 10.0 mi NW 4.6 mph - 0.01 in   Clear
2:54 AM 69.8 °F - 64.4 °F 83% 29.80 in 10.0 mi North 6.9 mph - 0.01 in   Clear
3:14 AM 68.0 °F - 64.4 °F 88% 29.83 in 10.0 mi SW 5.8 mph - N/A   Clear
3:34 AM 69.8 °F - 64.4 °F 83% 29.83 in 10.0 mi South 3.5 mph - N/A   Mostly Cloudy
3:54 AM 69.8 °F - 64.4 °F 83% 29.82 in 10.0 mi Calm Calm - N/A   Scattered Clouds
4:14 AM 68.0 °F - 64.4 °F 88% 29.84 in 10.0 mi Calm Calm - N/A   Mostly Cloudy
4:34 AM 68.0 °F - 64.4 °F 88% 29.83 in 10.0 mi SSE 5.8 mph - N/A   Mostly Cloudy
4:54 AM 68.0 °F - 64.4 °F 88% 29.84 in 10.0 mi SE 4.6 mph - N/A   Scattered Clouds
5:14 AM 68.0 °F - 64.4 °F 88% 29.85 in 10.0 mi SSE 3.5 mph - N/A   Clear
5:34 AM 69.8 °F - 66.2 °F 88% 29.85 in 10.0 mi South 4.6 mph - N/A   Scattered Clouds
5:54 AM 69.8 °F - 66.2 °F 88% 29.84 in 10.0 mi SSE 6.9 mph - N/A   Scattered Clouds
6:14 AM 69.8 °F - 66.2 °F 88% 29.85 in 10.0 mi South 9.2 mph - N/A   Scattered Clouds
6:34 AM 69.8 °F - 66.2 °F 88% 29.85 in 10.0 mi South 8.1 mph - N/A   Mostly Cloudy
6:54 AM 71.6 °F - 66.2 °F 83% 29.85 in 10.0 mi SSW 8.1 mph - N/A   Mostly Cloudy
7:15 AM 71.6 °F - 66.2 °F 83% 29.86 in 10.0 mi SSW 4.6 mph - N/A   Scattered Clouds
7:34 AM 69.8 °F - 66.2 °F 88% 29.86 in 10.0 mi SSW 6.9 mph - N/A   Scattered Clouds
7:54 AM 71.6 °F - 66.2 °F 83% 29.86 in 10.0 mi SSW 5.8 mph - N/A   Clear
8:15 AM 71.6 °F - 66.2 °F 83% 29.85 in 10.0 mi SSW 5.8 mph - N/A   Clear
8:34 AM 71.6 °F - 66.2 °F 83% 29.86 in 10.0 mi SSW 9.2 mph - N/A   Clear
8:54 AM 71.6 °F - 66.2 °F 83% 29.86 in 10.0 mi SW 6.9 mph - N/A   Clear
9:14 AM 71.6 °F - 66.2 °F 83% 29.87 in 10.0 mi SW 10.4 mph - N/A   Clear
9:34 AM 73.4 °F - 68.0 °F 83% 29.87 in 10.0 mi SW 10.4 mph - N/A   Mostly Cloudy
9:54 AM 73.4 °F - 68.0 °F 83% 29.87 in 10.0 mi WSW 8.1 mph - N/A   Overcast
10:14 AM 71.6 °F - 66.2 °F 83% 29.87 in 10.0 mi West 8.1 mph - N/A   Overcast
10:34 AM 73.4 °F - 68.0 °F 83% 29.86 in 10.0 mi West 6.9 mph - N/A   Overcast
10:54 AM 73.4 °F - 68.0 °F 83% 29.86 in 10.0 mi West 6.9 mph - N/A   Overcast
11:14 AM 75.2 °F - 68.0 °F 78% 29.86 in 10.0 mi WSW 5.8 mph - N/A   Mostly Cloudy
11:34 AM 75.2 °F - 69.8 °F 83% 29.86 in 10.0 mi West 8.1 mph - N/A   Mostly Cloudy
11:54 AM 77.0 °F - 69.8 °F 78% 29.86 in 10.0 mi West 6.9 mph - N/A   Scattered Clouds
12:14 PM 77.0 °F - 68.0 °F 74% 29.87 in 10.0 mi WSW 4.6 mph - N/A   Clear
12:34 PM 77.0 °F - 69.8 °F 78% 29.87 in 10.0 mi West 5.8 mph - N/A   Scattered Clouds
12:54 PM 77.0 °F - 69.8 °F 78% 29.86 in 10.0 mi West 8.1 mph - N/A   Mostly Cloudy
1:14 PM 77.0 °F - 68.0 °F 74% 29.86 in 10.0 mi West 5.8 mph - N/A   Mostly Cloudy
1:34 PM 78.8 °F - 69.8 °F 74% 29.85 in 10.0 mi West 5.8 mph - N/A   Mostly Cloudy
1:54 PM 78.8 °F - 69.8 °F 74% 29.84 in 10.0 mi WNW 3.5 mph - N/A   Scattered Clouds
2:14 PM 78.8 °F - 68.0 °F 69% 29.83 in 10.0 mi Calm Calm - N/A   Scattered Clouds
2:34 PM 78.8 °F - 68.0 °F 69% 29.82 in 10.0 mi Calm Calm - N/A   Clear
2:54 PM 78.8 °F - 69.8 °F 74% 29.82 in 10.0 mi SE 3.5 mph - N/A   Scattered Clouds
3:14 PM 78.8 °F - 69.8 °F 74% 29.82 in 10.0 mi South 5.8 mph - N/A   Clear
3:34 PM 80.6 °F 83.9 °F 69.8 °F 70% 29.81 in 10.0 mi South 5.8 mph - N/A   Clear
3:54 PM 80.6 °F 83.9 °F 69.8 °F 70% 29.82 in 10.0 mi South 8.1 mph - N/A   Clear
4:14 PM 78.8 °F - 69.8 °F 74% 29.81 in 10.0 mi South 8.1 mph - N/A   Clear
4:34 PM 77.0 °F - 69.8 °F 78% 29.81 in 10.0 mi South 9.2 mph - N/A   Clear
4:54 PM 77.0 °F - 71.6 °F 83% 29.81 in 10.0 mi South 8.1 mph - N/A   Clear
5:14 PM 78.8 °F - 69.8 °F 74% 29.80 in 10.0 mi South 9.2 mph - N/A   Scattered Clouds
5:34 PM 78.8 °F - 69.8 °F 74% 29.80 in 10.0 mi South 6.9 mph - N/A   Clear
5:54 PM 78.8 °F - 69.8 °F 74% 29.79 in 10.0 mi South 5.8 mph - N/A   Clear
6:14 PM 78.8 °F - 69.8 °F 74% 29.78 in 10.0 mi South 4.6 mph - N/A   Clear
6:34 PM 78.8 °F - 69.8 °F 74% 29.77 in 10.0 mi SSE 5.8 mph - N/A   Clear
6:54 PM 78.8 °F - 69.8 °F 74% 29.77 in 10.0 mi SE 3.5 mph - N/A   Clear
7:14 PM 78.8 °F - 69.8 °F 74% 29.76 in 10.0 mi SE 3.5 mph - N/A   Clear
7:34 PM 78.8 °F - 69.8 °F 74% 29.76 in 10.0 mi SSE 3.5 mph - N/A   Clear
7:54 PM 77.0 °F - 69.8 °F 78% 29.77 in 10.0 mi SSE 5.8 mph - N/A   Clear
8:14 PM 75.2 °F - 69.8 °F 83% 29.77 in 10.0 mi SSE 6.9 mph - N/A   Mostly Cloudy
8:34 PM 75.2 °F - 69.8 °F 83% 29.77 in 10.0 mi SE 4.6 mph - N/A   Mostly Cloudy
8:54 PM 75.2 °F - 69.8 °F 83% 29.77 in 10.0 mi Calm Calm - N/A   Mostly Cloudy
9:14 PM 75.2 °F - 69.8 °F 83% 29.77 in 10.0 mi Calm Calm - N/A   Scattered Clouds
9:35 PM 75.2 °F - 69.8 °F 83% 29.77 in 10.0 mi South 8.1 mph - N/A   Scattered Clouds
9:54 PM 75.2 °F - 69.8 °F 83% 29.77 in 10.0 mi South 6.9 mph - N/A   Clear
10:14 PM 75.2 °F - 69.8 °F 83% 29.76 in 7.0 mi SSE 4.6 mph - N/A   Scattered Clouds
10:34 PM 73.4 °F - 71.6 °F 94% 29.76 in 7.0 mi Calm Calm - N/A   Scattered Clouds
10:54 PM 73.4 °F - 71.6 °F 94% 29.76 in 7.0 mi Calm Calm - N/A Rain Rain
11:14 PM 73.4 °F - 71.6 °F 94% 29.75 in 7.0 mi Calm Calm - N/A   Scattered Clouds
11:34 PM 73.4 °F - 71.6 °F 94% 29.75 in 7.0 mi NNE 4.6 mph - N/A   Clear
11:54 PM 73.4 °F - 69.8 °F 88% 29.75 in 7.0 mi NE 5.8 mph - N/A   Clear